Hourly Data Report for May 22, 2017

FISHER BRANCH (AUT)
MANITOBA

51°05'00.100" N
97°33'16.200" W
253.00 m
50309J6
71442
WSZ

Download Data

Hourly Data (May 2017)
Hourly Data Report for May 22, 2017
TIME
LST
Temp Definition
°C
Dew Point Definition
°C
Rel Hum Definition
%
Precip. Amount Definition
mm

Wind Dir Definition
10's deg

Wind Spd Definition
km/h
Visibility Definition
km
Stn Press Definition
kPa
Hmdx Definition


Wind Chill Definition


Weather Definition


00:00 9.5 4.0 69 0.0 34 6   98.13     LegendNANA
01:00 10.0 4.1 67 0.0 35 12   98.17     LegendNANA
02:00 10.1 3.5 64 0.0 4 15   98.21     LegendNANA
03:00 8.0 5.0 81 0.0 2 7   98.21     LegendNANA
04:00 7.5 5.4 86 0.0 31 8   98.18     LegendNANA
05:00 7.5 5.5 87 0.0 30 8   98.16     LegendNANA
06:00 8.7 5.1 78 0.0 33 11   98.14     LegendNANA
07:00 8.8 6.1 83 0.0 5 8   98.18     LegendNANA
08:00 10.9 5.4 69 0.0 33 15   98.16     LegendNANA
09:00 12.7 4.3 56 0.0 34 22   98.15     LegendNANA
10:00 12.6 3.4 53 0.0 1 21   98.18     LegendNANA
11:00 13.4 3.8 52 0.0 36 22   98.20     LegendNANA
12:00 12.6 4.3 57 0.0 1 17   98.27     LegendNANA
13:00 12.9 5.7 61 0.0 4 27   98.33     LegendNANA
14:00 13.9 4.3 52 0.0 2 20   98.37     LegendNANA
15:00 14.0 3.2 48 0.0 3 23   98.44     LegendNANA
16:00 14.1 4.8 53 0.0 6 24   98.49     LegendNANA
17:00 14.0 4.1 51 0.0 6 22   98.54     LegendNANA
18:00 13.6 4.8 55 0.0 5 15   98.59     LegendNANA
19:00 13.7 5.0 56 0.0 6 9   98.64     LegendNANA
20:00 11.5 5.8 68 0.0 7 16   98.72     LegendNANA
21:00 11.5 4.4 62 0.0 5 14   98.80     LegendNANA
22:00 10.8 4.4 65 0.0 36 6   98.85     LegendNANA
23:00 10.5 4.5 66 0.0 2 9   98.90     LegendNANA

Notes on Data Quality.

Legend

  • E = Estimated
  • M = Missing
  • NA = Not Available*
  • [empty] = Indicates an unobserved value
Date modified: